Home   Weather   Aurora   Past weeks

Flag for USA Past Weather in Aurora, Illinois, USA — Yesterday and Last 2 Weeks

Now
61 °F

Mostly cloudy.


Feels Like: 61 °F
Forecast: 57 / 67 °F
Wind: 5 mph from Northeast

Location: Dupage Airport

Current Time: Oct 1, 2016 at 2:04:18 AM

Latest Report: Oct 1, 2016 at 12:59 AM


Visibility: 10 mi

Pressure: 30.04 "Hg

Humidity: 90%

Dew Point: 58 °F

Location of AuroraLocation

Past Weather in Aurora — Graph

°F

Aurora Temperature Yesterday

Maximum temperature yesterday: 65 °F (at 2:52 PM)
Minimum temperature yesterday: 60 °F (at 1:52 AM)
Average temperature yesterday: 62 °F

High & Low Weather Summary for the Past Weeks

 TemperatureHumidityPressure
High87 °F (Sep 19, 2:52 PM)93% (Sep 17, 6:52 AM)30.24 "Hg (Sep 17, 6:52 AM)
Low48 °F (Sep 27, 5:52 AM)26% (Sep 26, 3:52 PM)29.74 "Hg (Sep 27, 3:52 PM)
Average67 °F71%30.02 "Hg
* Reported Sep 16 12:52 AM — Oct 1 12:59 AM, Aurora, Weather by CustomWeather, © 2016

Note: Actual official high and low records may vary slightly from our data, if they occured in-between our weather recording intervals... More about our weather records

Advertising

Aurora Weather History for the Previous 24 Hours

Scroll right to see more
 ConditionsComfort  
Time TempWeatherWind HumidityBarometerVisibility
12:59 AM
Sat, Oct 1
61 °FMostly cloudy.5 mph90%30.04 "Hg10 mi
11:52 PM
Fri, Sep 30
61 °FOvercast.6 mph90%30.04 "Hg10 mi
10:52 PM61 °FOvercast.8 mph90%30.04 "Hg10 mi
9:52 PM61 °FOvercast.7 mph90%30.05 "Hg10 mi
8:52 PM62 °FOvercast.7 mph86%30.05 "Hg10 mi
7:52 PM63 °FMostly cloudy.10 mph81%30.06 "Hg10 mi
6:52 PM63 °FMostly cloudy.13 mph84%30.07 "Hg10 mi
5:52 PM63 °FLight rain. Overcast.12 mph84%30.07 "Hg7 mi
4:52 PM65 °FMostly cloudy.15 mph78%30.07 "Hg10 mi
3:52 PM65 °FMore clouds than sun.16 mph78%30.07 "Hg10 mi
2:52 PM65 °FMore clouds than sun.13 mph81%30.08 "Hg10 mi
1:52 PM64 °FOvercast.16 mph84%30.09 "Hg10 mi
1:00 PM63 °FMostly cloudy.12 mph87%30.12 "Hg10 mi
11:52 AM62 °FLight rain. Low clouds.10 mph90%30.13 "Hg7 mi
11:04 AM62 °FOvercast.13 mph90%30.15 "Hg7 mi
10:52 AM63 °FLight rain. Fog.14 mph90%30.14 "Hg5 mi
9:52 AM62 °FMostly cloudy.13 mph90%30.14 "Hg10 mi
8:52 AM62 °FLow clouds.15 mph86%30.14 "Hg10 mi
7:52 AM61 °FLow clouds.10 mph90%30.14 "Hg10 mi
6:52 AM60 °FFog.10 mph93%30.14 "Hg6 mi
5:52 AM60 °FLight rain. Fog.10 mph93%30.15 "Hg3 mi
4:52 AM60 °FFog.10 mph93%30.15 "Hg4 mi
3:52 AM60 °FFog.12 mph90%30.15 "Hg5 mi
2:52 AM60 °FLight rain. Fog.14 mph90%30.15 "Hg5 mi
Weather by CustomWeather, © 2016

See weather overviewHow to use our weather pages